Change the Weather History Date:

Saturday, June 28, 2014

  Actual Average Record
Temperature  
Mean Temperature 54 °F -  
Max Temperature 70 °F 60 °F 78 °F (1997)
Min Temperature 39 °F 43 °F -3 °F (1971)
Degree Days  
Heating Degree Days 11    
Growing Degree Days 4 (Base 50)    
Moisture  
Dew Point 45 °F    
Average Humidity 85    
Maximum Humidity 100    
Minimum Humidity 44    
Precipitation  
Precipitation 0.01 in - - ()
Sea Level Pressure  
Sea Level Pressure 29.77 in    
Wind  
Wind Speed 2 mph (NNW)    
Max Wind Speed 10 mph    
Max Gust Speed -    
Visibility 5 miles    
Events Fog    
Averages and records for this station are not official NWS values.
T = Trace of Precipitation, MM = Missing Value Source: NWS Daily Summary

Daily Weather History Graph

Daily Weather History Graph

Search for Another Location

Airport or City:

Trip Planner

Search our weather history database for the weather conditions in past years. The results will help you decide how hot, cold, wet, or windy it might be!

Date:

Astronomy

Jun. 28, 2014 Rise Set
Actual Time 4:37 AM AKDT 11:38 PM AKDT
Civil Twilight 2:33 AM AKDT 1:39 AM AKDT
Nautical Twilight Sun does not rise Sun does not rise
Astronomical Twilight Sun does not rise Sun does not rise
Moon 6:58 AM AKDT (6/28) 11:33 PM AKDT (6/28)
Length of Visible Light 23h 06m
Length of Day
19h 00m
New Moon, 2% of the Moon is Illuminated
Jun 28
New Moon
Jul 5
First Quarter
Jul 12
Full
Jul 18
Last Quarter
Jul 26
New

Hourly Weather History & Observations

Time (AKDT) Temp. Windchill Dew Point Humidity Pressure Visibility Wind Dir Wind Speed Gust Speed Precip Events Conditions
12:33 AM 48.2 °F - 46.4 °F 93% 29.75 in 1.0 mi Calm Calm - N/A   Clear
12:38 AM 48.2 °F - 46.4 °F 93% 29.75 in 4.0 mi Calm Calm - N/A   Clear
12:41 AM 46.4 °F - 46.4 °F 100% 29.75 in 1.2 mi Calm Calm - N/A   Clear
12:53 AM 46.9 °F - 46.0 °F 97% 29.76 in 1.8 mi Calm Calm - N/A   Clear
1:00 AM 46.4 °F - 46.4 °F 100% 29.75 in 0.5 mi Calm Calm - N/A Fog Fog
1:10 AM 46.4 °F - 44.6 °F 93% 29.76 in 0.2 mi Calm Calm - N/A Fog Fog
1:27 AM 46.4 °F 45.2 °F 46.4 °F 100% 29.76 in 0.5 mi North 3.5 mph - N/A Fog Fog
1:34 AM 46.4 °F 45.2 °F 46.4 °F 100% 29.76 in 1.2 mi North 3.5 mph - N/A   Partly Cloudy
1:46 AM 44.6 °F 43.1 °F 44.6 °F 100% 29.76 in 0.5 mi NNW 3.5 mph - N/A Fog Fog
1:53 AM 45.0 °F - 45.0 °F 100% 29.77 in 0.5 mi Calm Calm - N/A Fog Fog
2:04 AM 46.4 °F - 44.6 °F 93% 29.76 in 0.5 mi Calm Calm - N/A Fog Fog
2:12 AM 46.4 °F - 44.6 °F 93% 29.76 in 1.2 mi Calm Calm - N/A   Partly Cloudy
2:16 AM 44.6 °F - 44.6 °F 100% 29.76 in 0.8 mi Calm Calm - N/A   Mist
2:27 AM 44.6 °F - 44.6 °F 100% 29.76 in 0.2 mi Calm Calm - N/A Fog Fog
2:35 AM 44.6 °F - 44.6 °F 100% 29.76 in 0.5 mi Calm Calm - N/A Fog Fog
2:42 AM 44.6 °F - 44.6 °F 100% 29.76 in 2.5 mi Calm Calm - N/A   Clear
2:49 AM 42.8 °F - 42.8 °F 100% 29.76 in 1.8 mi Calm Calm - N/A   Partly Cloudy
2:53 AM 43.0 °F - 42.1 °F 97% 29.77 in 1.0 mi Calm Calm - N/A   Mist
2:55 AM 42.8 °F - 42.8 °F 100% 29.76 in 0.8 mi Calm Calm - N/A   Mist
3:06 AM 42.8 °F 41.1 °F 42.8 °F 100% 29.76 in 0.2 mi NNE 3.5 mph - N/A Fog Fog
3:53 AM 42.1 °F - 42.1 °F 100% 29.78 in 0.2 mi Calm Calm - N/A Fog Fog
4:11 AM 42.8 °F - 42.8 °F 100% 29.77 in 0.5 mi Calm Calm - N/A Fog Fog
4:19 AM 42.8 °F - 42.8 °F 100% 29.77 in 0.2 mi Calm Calm - N/A Fog Fog
4:46 AM 41.0 °F - 41.0 °F 100% 29.77 in 0.2 mi Calm Calm - N/A Fog Fog
4:53 AM 41.0 °F - 41.0 °F 100% 29.77 in 0.2 mi Calm Calm - N/A Fog Fog
5:24 AM 39.2 °F 35.9 °F 39.2 °F 100% 29.77 in 1.5 mi NNE 4.6 mph - 0.01 in   Mostly Cloudy
5:26 AM 39.2 °F 35.9 °F 39.2 °F 100% 29.77 in 4.0 mi NNE 4.6 mph - 0.01 in   Mostly Cloudy
5:38 AM 41.0 °F - 39.2 °F 93% 29.77 in 10.0 mi Calm Calm - 0.01 in   Scattered Clouds
5:53 AM 41.0 °F 39.0 °F 41.0 °F 100% 29.79 in 10.0 mi ENE 3.5 mph - 0.01 in   Clear
6:53 AM 45.0 °F - 44.1 °F 97% 29.79 in 10.0 mi Calm Calm - N/A   Clear
7:53 AM 52.0 °F - 48.9 °F 89% 29.79 in 10.0 mi NNE 4.6 mph - N/A   Clear
8:53 AM 53.1 °F - 48.9 °F 86% 29.80 in 10.0 mi NE 4.6 mph - N/A   Clear
9:53 AM 59.0 °F - 50.0 °F 72% 29.80 in 10.0 mi Variable 6.9 mph - N/A   Partly Cloudy
10:53 AM 60.1 °F - 46.9 °F 62% 29.80 in 10.0 mi North 6.9 mph - N/A   Scattered Clouds
11:53 AM 63.0 °F - 46.9 °F 56% 29.79 in 10.0 mi North 4.6 mph - N/A   Scattered Clouds
12:53 PM 64.0 °F - 46.9 °F 54% 29.78 in 10.0 mi NNE 5.8 mph - N/A   Clear
1:53 PM 66.9 °F - 45.0 °F 45% 29.78 in 10.0 mi NNE 8.1 mph - N/A   Clear
2:53 PM 69.1 °F - 46.0 °F 44% 29.78 in 10.0 mi NW 6.9 mph - N/A   Clear
3:53 PM 69.1 °F - 48.0 °F 47% 29.78 in 10.0 mi WNW 8.1 mph - N/A   Clear
4:53 PM 68.0 °F - 48.9 °F 50% 29.78 in 10.0 mi WNW 9.2 mph - N/A   Clear
5:53 PM 66.9 °F - 48.0 °F 51% 29.78 in 10.0 mi West 10.4 mph - N/A   Clear
6:53 PM 66.9 °F - 48.0 °F 51% 29.78 in 10.0 mi West 10.4 mph - N/A   Clear
7:53 PM 66.0 °F - 48.9 °F 54% 29.78 in 10.0 mi West 6.9 mph - N/A   Clear
8:53 PM 64.0 °F - 48.9 °F 58% 29.78 in 10.0 mi West 5.8 mph - N/A   Clear
9:53 PM 59.0 °F - 50.0 °F 72% 29.79 in 10.0 mi SSW 6.9 mph - N/A   Clear
10:53 PM 53.1 °F - 48.0 °F 83% 29.80 in 10.0 mi SSW 6.9 mph - N/A   Clear
11:53 PM 54.0 °F - 48.9 °F 83% 29.82 in 10.0 mi South 8.1 mph - N/A   Clear